SEY1023 LTFM-FSIA

Flight info

Callsign SEY1023
Flight time N/A
Altitude 37000
Route RATVU1D/35L RATVU UT35 AYT UM855 TOMBI M855 RASDA A16 CVO A727 LXR M999 DASPA/N0468F390 M999 JDW G650 RASKA/N0478F380 G650 ULONI/N0471F390 UV790 SB UR775 HARGA/N0471F400 UM651 MURAL/N0475F390 UG651 KUSUB UM651 ESTOK/N0471F400 UM651 ANVIX/N0473F390 DCT NEVIN DCT FS601 DCT PETER DCT SAMES DCT DALON
Aircraft A333/H-SDE3GHIJ2J3J5M1RVWXY/LB2D1

Departure

Time N/A
Airport İstanbul Airport (LTFM)

Arrival

Time 2026-04-17 02:16
Airport Seychelles International Airport (FSIA)
Time Latitude Longitude Altitude Speed Heading
2026-04-17 02:15 -4.67514 55.52288 28 ft 17 kts 125°
2026-04-17 02:16 -4.67586 55.52397 26 ft 20 kts 123°
2026-04-17 02:16 -4.67672 55.52520 30 ft 23 kts 125°
2026-04-17 02:16 -4.67771 55.52663 26 ft 26 kts 124°
2026-04-17 02:16 -4.67875 55.52813 30 ft 28 kts 125°
2026-04-17 02:17 -4.67990 55.52978 29 ft 25 kts 124°
2026-04-17 02:17 -4.68077 55.53107 27 ft 14 kts 124°
2026-04-17 02:17 -4.68167 55.53158 24 ft 17 kts 165°
2026-04-17 02:17 -4.68229 55.53172 29 ft 2 kts 167°
2026-04-17 02:18 -4.68255 55.53183 26 ft 5 kts 146°
2026-04-17 02:18 -4.68267 55.53208 28 ft 4 kts 100°
2026-04-17 02:18 -4.68253 55.53239 29 ft 6 kts 49°
2026-04-17 02:18 -4.68209 55.53269 28 ft 8 kts 24°
2026-04-17 02:19 -4.68167 55.53249 28 ft 8 kts 302°
2026-04-17 02:19 -4.68132 55.53192 28 ft 11 kts 303°
2026-04-17 02:19 -4.68082 55.53118 26 ft 14 kts 305°
2026-04-17 02:19 -4.68018 55.53028 27 ft 18 kts 305°
2026-04-17 02:20 -4.67941 55.52916 30 ft 22 kts 304°
2026-04-17 02:20 -4.67852 55.52785 29 ft 25 kts 304°
2026-04-17 02:20 -4.67750 55.52637 28 ft 28 kts 304°
2026-04-17 02:20 -4.67643 55.52480 28 ft 28 kts 304°
2026-04-17 02:21 -4.67546 55.52336 31 ft 30 kts 304°
2026-04-17 02:21 -4.67426 55.52160 27 ft 31 kts 305°
2026-04-17 02:21 -4.67296 55.51973 26 ft 34 kts 304°
2026-04-17 02:21 -4.67166 55.51782 30 ft 35 kts 304°
2026-04-17 02:22 -4.67027 55.51579 30 ft 37 kts 304°
2026-04-17 02:22 -4.66879 55.51362 29 ft 32 kts 304°
2026-04-17 02:22 -4.66766 55.51203 27 ft 22 kts 307°
2026-04-17 02:22 -4.66711 55.51130 26 ft 12 kts 306°
2026-04-17 02:23 -4.66706 55.51051 29 ft 14 kts 234°
2026-04-17 02:23 -4.66780 55.51043 28 ft 11 kts 142°
2026-04-17 02:23 -4.66836 55.51110 25 ft 14 kts 124°
2026-04-17 02:23 -4.66897 55.51195 27 ft 11 kts 141°
2026-04-17 02:24 -4.66911 55.51200 28 ft 3 kts 158°
2026-04-17 02:24 -4.66933 55.51201 27 ft 4 kts 189°
2026-04-17 02:24 -4.66965 55.51202 28 ft 6 kts 162°
2026-04-17 02:24 -4.67000 55.51233 29 ft 8 kts 127°
2026-04-17 02:25 -4.67022 55.51253 29 ft 2 kts 161°
2026-04-17 02:25 -4.67037 55.51248 28 ft 5 kts 198°
2026-04-17 02:25 -4.67070 55.51229 29 ft 0 kts 215°
2026-04-17 02:25 -4.67071 55.51229 29 ft 0 kts 206°
2026-04-17 02:26 -4.67076 55.51227 29 ft 1 kts 211°
2026-04-17 02:26 -4.67079 55.51225 29 ft 0 kts 212°
2026-04-17 02:26 -4.67079 55.51226 29 ft 0 kts 215°